HULIANWANG DIGUI-160

Last updated on Sun Apr 12 2026 00:02:06 GMT+0000 (Coordinated Universal Time)

1 68134U 26047F 26101.25862237 -.00000067 00000+0 77943-4 0 9993 2 68134 50.0083 299.7421 0000341 347.1254 12.9628 13.72878679 4109
UTC large
Height (km)
Speed (km/s)
/
Latitude / Longitude
Inclination (degrees)
Orbital Period (minutes)
Azimuth
Elevation
Range (km)
Doppler Factor

Next 0 passes for location: London (51.5072 / 0.1276)

Sorry there are no passes over London.
HULIANWANG DIGUI-160